Weather History for KJST - December, 2012

Change the Weather History Date:

Wednesday, December 5, 2012

  Actual Average Record
Temperature  
Mean Temperature 35 °F 31 °F  
Max Temperature 43 °F 38 °F 72 °F (1982)
Min Temperature 26 °F 25 °F 3 °F (1966)
Degree Days  
Heating Degree Days 30 34  
Month to date heating degree days 164  
Since 1 July heating degree days 1621  
Cooling Degree Days 0 0  
Month to date cooling degree days 0  
Year to date cooling degree days 382  
Moisture  
Dew Point 31 °F    
Average Humidity 80    
Maximum Humidity 93    
Minimum Humidity 65    
Precipitation  
Precipitation 0.01 in 0.09 in 1.44 in (1922)
Month to date precipitation 0.46  
Year to date precipitation 31.51  
Sea Level Pressure  
Sea Level Pressure 30.16 in    
Wind  
Wind Speed 8 mph (WNW)    
Max Wind Speed 23 mph    
Max Gust Speed 29 mph    
Visibility 10 miles    
Events Rain    
T = Trace of Precipitation, MM = Missing Value Source: NWS Daily Summary

Daily Weather History Graph

Daily Weather History Graph

Search for Another Location

Airport or City:

Trip Planner

Search our weather history database for the weather conditions in past years. The results will help you decide how hot, cold, wet, or windy it might be!

Date:

Astronomy

Dec. 05, 2012 Rise Set
Actual Time 7:23 AM EST 4:49 PM EST
Civil Twilight 6:52 AM EST 5:19 PM EST
Nautical Twilight 6:18 AM EST 5:53 PM EST
Astronomical Twilight 5:45 AM EST 6:26 PM EST
Moon 11:37 PM EST (12/5) 11:45 AM EST (12/5)
Length of Visible Light 10h 26m
Length of Day
9h 25m
Waning Gibbous, 60% of the Moon is Illuminated
Dec 5
Waning Gibbous
Dec 6
Last Quarter
Dec 13
New
Dec 20
First Quarter
Dec 28
Full

Hourly Weather History & Observations

Time (EST) Temp. Windchill Dew Point Humidity Pressure Visibility Wind Dir Wind Speed Gust Speed Precip Events Conditions
12:26 AM 42.8 °F - 39.2 °F 87% 30.05 in 10.0 mi Calm Calm - 0.01 in Rain Light Rain
12:37 AM 42.8 °F - 39.2 °F 87% 30.06 in 10.0 mi Calm Calm - 0.01 in Rain Light Rain
12:54 AM 43.0 °F 40.3 °F 39.9 °F 89% 30.06 in 10.0 mi West 4.6 mph - 0.01 in Rain Light Rain
1:10 AM 42.8 °F 38.0 °F 39.2 °F 87% 30.06 in 10.0 mi WNW 8.1 mph - 0.00 in   Overcast
1:26 AM 42.8 °F 36.2 °F 37.4 °F 81% 30.07 in 10.0 mi West 12.7 mph 17.3 mph 0.00 in   Overcast
1:33 AM 42.8 °F 36.6 °F 37.4 °F 81% 30.07 in 10.0 mi WNW 11.5 mph - 0.00 in   Overcast
1:45 AM 42.8 °F 38.0 °F 39.2 °F 87% 30.07 in 10.0 mi West 8.1 mph - 0.00 in   Overcast
1:54 AM 42.1 °F 37.1 °F 37.9 °F 85% 30.09 in 10.0 mi West 8.1 mph - 0.00 in   Mostly Cloudy
2:03 AM 42.8 °F 39.3 °F 37.4 °F 81% 30.08 in 10.0 mi West 5.8 mph - N/A   Mostly Cloudy
2:14 AM 41.0 °F 35.8 °F 37.4 °F 87% 30.09 in 10.0 mi West 8.1 mph - N/A   Mostly Cloudy
2:23 AM 41.0 °F 34.7 °F 37.4 °F 87% 30.09 in 10.0 mi WNW 10.4 mph - N/A   Overcast
2:43 AM 39.2 °F 35.0 °F 35.6 °F 87% 30.09 in 10.0 mi West 5.8 mph - N/A   Overcast
2:54 AM 39.9 °F 35.1 °F 35.1 °F 83% 30.09 in 10.0 mi West 6.9 mph - N/A   Mostly Cloudy
3:17 AM 39.2 °F 33.6 °F 35.6 °F 87% 30.09 in 10.0 mi WSW 8.1 mph - N/A   Overcast
3:54 AM 39.0 °F - 34.0 °F 82% 30.10 in 10.0 mi Calm Calm - N/A   Mostly Cloudy
4:07 AM 37.4 °F 30.8 °F 33.8 °F 87% 30.09 in 10.0 mi West 9.2 mph - N/A   Scattered Clouds
4:54 AM 37.0 °F 30.4 °F 34.0 °F 89% 30.12 in 10.0 mi West 9.2 mph - N/A   Scattered Clouds
5:33 AM 37.4 °F 29.8 °F 33.8 °F 87% 30.10 in 10.0 mi West 11.5 mph 16.1 mph N/A   Mostly Cloudy
5:54 AM 37.0 °F 28.9 °F 34.0 °F 89% 30.14 in 10.0 mi West 12.7 mph - N/A   Mostly Cloudy
6:51 AM 35.6 °F 29.2 °F 33.8 °F 93% 30.12 in 10.0 mi West 8.1 mph - N/A   Scattered Clouds
6:54 AM 36.0 °F 28.5 °F 33.1 °F 89% 30.16 in 10.0 mi West 10.4 mph 18.4 mph N/A   Scattered Clouds
7:10 AM 35.6 °F 27.5 °F 33.8 °F 93% 30.13 in 10.0 mi West 11.5 mph - N/A   Mostly Cloudy
7:51 AM 35.6 °F 27.1 °F 32.0 °F 87% 30.13 in 10.0 mi West 12.7 mph - N/A   Scattered Clouds
7:54 AM 36.0 °F 29.0 °F 32.0 °F 86% 30.16 in 10.0 mi West 9.2 mph - N/A   Scattered Clouds
9:54 AM 37.0 °F 27.0 °F 30.9 °F 79% 30.19 in 10.0 mi West 18.4 mph 24.2 mph N/A   Mostly Cloudy
10:40 AM 37.4 °F 28.5 °F 30.2 °F 75% 30.17 in 10.0 mi West 15.0 mph 25.3 mph N/A   Mostly Cloudy
10:54 AM 37.0 °F 28.1 °F 30.9 °F 79% 30.21 in 10.0 mi WNW 15.0 mph - N/A   Mostly Cloudy
11:34 AM 37.4 °F 28.2 °F 30.2 °F 75% 30.16 in 10.0 mi West 16.1 mph 27.6 mph N/A   Mostly Cloudy
11:54 AM 37.9 °F 27.9 °F 28.9 °F 70% 30.21 in 10.0 mi WNW 19.6 mph 24.2 mph N/A   Mostly Cloudy
12:54 PM 36.0 °F 26.0 °F 28.0 °F 73% 30.20 in 10.0 mi West 17.3 mph 25.3 mph N/A   Overcast
1:54 PM 36.0 °F 27.1 °F 26.1 °F 67% 30.20 in 10.0 mi WNW 13.8 mph 24.2 mph N/A   Overcast
3:12 PM 35.6 °F 24.0 °F 24.8 °F 65% 30.17 in 10.0 mi NW 23.0 mph 28.8 mph N/A   Overcast
3:30 PM 33.8 °F 22.2 °F 23.0 °F 65% 30.18 in 10.0 mi NW 20.7 mph 28.8 mph N/A   Overcast
3:54 PM 33.1 °F 23.0 °F 25.0 °F 72% 30.25 in 10.0 mi NW 15.0 mph - N/A   Mostly Cloudy
4:54 PM 30.0 °F 19.5 °F 19.9 °F 66% 30.29 in 10.0 mi NW 13.8 mph - N/A   Overcast
5:54 PM 28.9 °F 18.6 °F 19.0 °F 67% 30.32 in 10.0 mi NW 12.7 mph 21.9 mph N/A   Overcast
6:54 PM 28.0 °F 19.3 °F 18.0 °F 66% 30.32 in 10.0 mi NNW 9.2 mph - N/A   Overcast
7:54 PM 28.0 °F 18.1 °F 19.0 °F 69% 30.32 in 10.0 mi NW 11.5 mph - N/A   Overcast
8:54 PM 28.0 °F 21.7 °F 19.0 °F 69% 30.32 in 10.0 mi NW 5.8 mph - N/A   Overcast
9:54 PM 28.0 °F 19.3 °F 19.9 °F 72% 30.32 in 10.0 mi WNW 9.2 mph - N/A   Overcast
10:54 PM 27.0 °F 20.5 °F 19.0 °F 72% 30.33 in 10.0 mi NW 5.8 mph - N/A   Overcast
11:54 PM 26.1 °F 17.6 °F 19.0 °F 75% 30.33 in 10.0 mi WNW 8.1 mph - N/A   Overcast